EHI
0 0 0 0 0 0 0 0 0 0 0 0 0 1 2 2 3 3 3 3 2 1 0 0 0 0 0 0 0 0 0 0 0 0 0 0 0 0 0 0 0 0 0
0 0 0 0 0 0 0 0 0 0 0 0 0 0 1 1 2 3 3 3 2 1 0 0 0 0 0 0 0 0 0 0 0 0 0 0 0 0 0 0 0 0 0
0 0 0 0 0 0 0 0 0 0 0 0 0 0 0 0 1 1 3 3 2 1 0 0 0 0 0 0 0 0 0 0 0 0 0 0 0 0 0 0 0 0 0
0 0 0 0 0 0 0 0 0 0 0 0 0 0 0 0 0 1 2 2 2 1 0 0 0 0 0 0 0 0 0 0 0 0 0 0 0 0 0 0 0 0 0
0 0 0 0 0 0 0 0 0 0 0 0 0 0 0 0 0 0 1 1 1 0 0 0 0 0 0 0 0 0 0 0 0 0 0 0 0 0 0 0 0 0 0
0 0 0 0 0 0 0 0 0 0 0 0 0 0 0 0 0 0 0 0 0 0 0 0 0 0 0 0 0 0 0 0 0 0 0 0 0 0 0 0 0 0 0
0 0 0 0 0 0 0 0 0 0 0 0 0 0 0 0 0 0 0 0 0 0 0 0 0 0 0 0 0 0 0 0 0 0 0 0 0 0 0 0 0 0 0
0 0 0 0 0 0 0 0 0 0 0 0 0 0 0 0 0 0 0 0 0 0 0 0 0 0 0 0 0 0 0 0 0 0 0 0 0 0 0 0 0 0 0
0 0 0 0 0 0 0 0 0 0 0 0 0 0 0 0 0 0 0 0 0 0 0 0 0 0 0 0 0 0 0 0 0 0 0 0 0 0 0 0 0 0 0
0 0 0 0 0 0 0 0 0 0 0 0 0 0 0 0 0 0 0 0 0 0 0 0 0 0 0 0 0 0 0 0 0 0 0 0 0 0 0 0 0 0 0
0 0 0 0 0 0 0 0 0 0 0 0 0 0 0 0 0 0 0 0 0 0 0 0 0 0 0 0 0 0 0 0 0 0 0 0 0 0 0 0 0 0 0
0 0 0 0 0 0 0 0 0 0 0 0 0 0 0 0 0 0 0 0 0 0 0 0 0 0 0 0 0 0 0 0 0 0 0 0 0 0 0 0 0 0 0
0 0 0 0 0 0 0 0 0 0 0 0 0 0 0 0 0 0 0 0 0 0 0 0 0 0 0 0 0 0 0 0 0 0 0 0 0 0 0 0 0 0 0
0 0 0 0 0 0 0 0 0 0 0 0 0 0 0 0 0 0 0 0 0 0 0 0 0 0 0 0 0 0 0 0 0 0 0 0 0 0 0 0 0 0 0
0 0 0 0 0 0 0 0 0 0 0 0 0 0 0 0 0 0 0 0 0 0 0 0 0 0 0 0 0 0 0 0 0 0 0 0 0 0 0 0 0 0 0
0 0 0 0 0 0 0 0 0 0 0 0 0 0 0 0 0 0 0 0 0 0 0 0 0 0 0 0 0 0 0 0 0 0 0 0 0 0 0 0 0 0 0
0 0 0 0 0 0 0 0 0 0 0 0 0 0 0 0 0 0 0 0 0 0 0 0 0 0 0 0 0 0 0 0 0 0 0 0 0 0 0 0 0 0 0
0 0 0 0 0 0 0 0 0 0 0 0 0 0 0 0 0 0 0 0 0 0 0 0 0 0 0 0 0 0 0 0 0 0 0 0 0 0 0 0 0 0 0
0 0 0 0 0 0 0 0 0 0 0 0 0 0 0 0 0 0 0 0 0 0 0 0 0 0 0 0 0 0 0 0 0 0 0 0 0 0 0 0 0 0 0
0 0 0 0 0 0 0 0 0 0 0 0 0 0 0 0 0 0 0 0 0 0 0 0 0 0 0 0 0 0 0 0 0 0 0 0 0 0 0 0 0 0 0
0 0 0 0 0 0 0 0 0 0 0 0 0 0 0 0 0 0 0 0 0 0 0 0 0 0 0 0 0 0 0 0 0 0 0 0 0 0 0 0 0 0 0
0 0 0 0 0 0 0 0 0 0 0 0 0 0 0 0 0 0 0 0 0 0 0 0 0 0 0 0 0 0 0 0 0 0 0 0 0 0 0 0 0 0 0
0 0 0 0 0 0 0 0 0 0 0 0 0 0 0 0 0 0 0 0 0 0 0 0 0 0 0 0 0 0 0 0 0 0 0 0 0 0 0 0 0 0 0
0 0 0 0 0 0 0 0 0 0 0 0 0 0 0 0 0 0 0 0 0 0 0 0 0 0 0 0 0 0 0 0 0 0 0 0 0 0 0 0 0 0 0
0 0 0 0 0 0 0 0 0 0 0 0 0 0 0 0 0 0 0 0 0 0 0 0 0 0 0 0 0 0 0 0 0 0 0 0 0 0 0 0 0 0 0
0 0 0 0 0 0 0 0 0 0 0 0 0 0 0 0 0 0 0 0 0 0 0 0 0 0 0 0 0 0 0 0 0 0 0 0 0 0 0 0 0 0 0
Wind_Speed
1 1 1 1 1 1 2 2 2 2 2 1 1 1 1 0 1 1 1 1 1 1 1 1 0 0 1 1 1 1 1 1 1 1 2 2 2 2 2 2 2 2 2
1 0 0 1 1 1 1 1 1 1 2 1 1 1 1 1 1 0 1 1 1 1 0 0 0 1 1 1 1 1 1 1 0 1 0 2 3 2 2 1 2 2 1
3 2 2 1 1 1 2 2 1 1 1 1 2 2 2 1 1 1 1 1 1 1 0 0 1 1 1 1 1 1 1 1 1 1 2 1 2 2 2 1 1 2 1
2 2 2 2 2 2 2 1 1 1 1 2 2 2 1 0 1 1 1 2 1 1 1 1 1 1 1 1 1 1 1 1 1 1 1 2 1 1 2 2 1 1 2
2 2 2 2 2 1 1 1 1 1 1 2 2 2 1 1 0 0 1 1 1 1 1 1 1 1 1 1 1 1 1 1 2 2 1 1 1 2 2 3 2 2 1
2 2 2 1 1 1 0 1 1 1 1 1 2 2 2 2 1 1 1 1 1 1 1 1 1 1 1 1 1 1 2 2 2 2 2 2 2 2 2 3 3 3 2
1 1 1 1 1 1 1 1 1 1 1 1 1 2 3 3 3 2 2 2 1 1 2 1 1 1 1 2 2 2 2 2 2 2 2 2 2 2 2 2 2 2 2
1 1 1 1 1 2 1 1 2 2 2 2 2 2 2 2 2 3 3 3 2 2 2 2 2 2 2 2 2 2 2 2 2 3 3 2 2 2 2 2 2 2 2
1 1 2 2 2 2 2 2 2 3 2 2 2 2 2 3 3 3 2 2 3 3 3 2 2 2 2 2 2 2 3 2 3 3 3 3 2 2 2 2 2 3 3
2 2 2 2 2 2 2 2 2 2 3 2 2 2 3 3 3 3 3 4 3 3 3 3 3 3 3 3 2 3 3 3 3 3 3 3 2 2 2 2 2 3 3
2 2 3 3 2 2 2 2 2 2 2 2 2 2 3 3 3 3 4 4 3 3 4 4 4 4 4 3 3 3 3 3 4 3 3 4 3 2 2 2 2 3 3
2 2 2 2 2 2 2 2 2 2 3 3 2 3 3 2 3 4 4 4 4 4 4 4 4 4 4 4 4 4 4 4 5 4 4 4 3 4 3 3 3 3 3
2 2 2 3 3 3 3 3 3 3 3 2 2 3 3 3 4 4 4 4 4 4 4 4 5 5 5 4 5 5 5 5 5 5 5 5 4 4 3 4 4 3 3
2 2 3 3 3 3 3 3 4 3 3 2 2 3 4 4 4 4 4 4 4 4 5 5 5 5 5 5 5 5 5 5 5 5 5 5 5 5 5 4 4 3 3
3 3 3 3 3 3 4 4 4 3 3 2 3 4 4 4 4 4 4 4 4 5 5 5 5 5 5 5 5 5 5 5 5 5 5 5 7 7 6 4 4 4 3
4 4 4 4 4 4 4 4 4 4 3 3 4 4 4 3 3 4 4 4 4 4 4 5 5 5 5 8 10 7 5 5 6 6 5 5 6 8 9 10 8 7 5
4 4 4 5 5 4 4 4 5 4 3 4 4 4 4 4 4 4 3 4 4 4 4 5 5 6 7 11 11 10 6 5 6 6 5 4 5 6 4 6 8 8 9
4 4 4 5 4 4 4 4 4 3 4 4 4 4 4 4 4 3 4 4 4 4 4 5 5 6 7 11 11 10 6 5 6 6 6 6 5 5 5 4 4 4 4
5 5 4 4 4 4 4 3 4 4 4 5 5 5 4 4 4 4 5 4 4 4 4 4 5 6 7 10 11 9 4 4 6 6 6 6 6 9 9 5 5 4 3
3 4 4 3 4 4 3 3 4 4 5 6 6 5 4 5 5 6 5 4 4 5 5 5 5 6 7 10 11 9 4 5 5 4 5 9 8 9 9 6 6 6 4
4 4 3 4 4 4 3 4 5 6 7 6 5 5 5 5 5 5 4 4 4 4 5 5 5 6 7 10 11 10 5 5 5 4 4 5 10 10 10 8 6 8 5
5 4 4 5 5 4 3 5 6 7 6 5 5 5 5 5 4 4 4 4 4 5 5 5 6 5 6 8 9 11 10 8 6 5 4 5 9 10 10 7 7 8 5
6 5 5 6 6 5 4 6 8 6 5 5 6 5 5 5 5 4 5 4 4 4 5 4 5 5 4 6 11 12 11 11 6 5 7 8 8 7 6 7 8 6 4
6 5 5 6 7 6 6 7 7 6 5 6 6 5 5 5 5 4 4 4 5 5 5 5 6 5 4 4 4 5 5 7 6 5 6 8 7 5 4 4 4 3 4
5 5 5 7 8 7 7 7 6 5 6 6 6 5 5 5 5 5 5 6 6 7 7 6 6 5 6 7 9 6 4 4 4 3 2 3 3 3 3 2 2 3 3
6 6 6 7 8 7 8 7 6 6 6 6 5 5 4 4 4 5 6 8 10 12 14 13 11 8 11 12 11 11 10 9 8 4 3 4 4 4 4 4 4 3 4
Wind_Direction
282 29 64 94 98 85 97 109 116 115 101 95 103 125 136 105 78 64 42 41 43 57 93 99 149 202 198 222 231 254 267 274 288 309 308 301 272 255 244 233 225 225 215
303 83 93 99 139 160 147 132 120 108 109 136 152 139 150 157 193 130 25 29 43 24 75 127 211 228 220 237 239 232 248 281 175 172 272 314 321 290 257 231 220 230 207
227 222 199 194 187 206 209 180 163 135 122 115 102 77 54 36 28 17 351 333 324 297 288 224 213 243 214 228 250 231 223 252 259 213 187 203 248 299 307 284 241 229 211
260 251 237 235 225 223 202 194 170 151 141 128 123 120 124 144 260 251 277 318 325 317 303 269 245 229 231 236 243 226 235 233 258 266 247 240 221 232 292 303 300 268 233
257 268 257 248 251 235 180 183 181 182 156 140 144 140 151 176 274 313 323 331 334 329 319 293 280 262 256 251 249 245 238 230 237 242 244 250 263 237 242 275 299 309 275
280 294 312 327 323 351 27 172 187 210 176 157 153 162 180 183 178 300 292 308 315 304 300 289 259 253 259 264 259 245 239 244 249 251 233 212 215 221 226 251 270 278 287
289 304 324 324 313 313 297 253 218 228 205 185 198 202 202 201 206 228 246 265 278 276 282 285 270 263 253 256 257 249 245 242 245 245 248 240 232 219 221 241 260 267 283
327 295 286 280 286 287 279 258 240 240 225 211 226 223 216 214 224 226 226 238 247 256 263 263 264 262 258 257 253 254 247 241 243 247 245 247 245 230 223 221 230 269 273
307 312 320 316 310 302 282 260 250 252 243 229 229 232 224 221 231 238 234 242 249 258 256 252 252 258 256 249 244 248 250 242 239 243 243 246 247 237 236 227 216 223 257
307 325 332 315 308 299 301 308 273 259 259 249 236 239 233 230 231 231 237 240 248 249 255 258 253 254 255 251 242 247 246 242 247 239 238 242 242 237 232 230 231 226 235
270 287 302 303 301 313 312 301 299 285 281 268 255 252 251 241 234 235 241 242 245 243 243 246 248 247 247 244 239 243 243 245 254 249 238 241 237 235 233 228 229 231 227
275 281 299 315 320 315 312 307 300 289 278 271 264 260 258 251 248 250 250 244 245 245 244 245 247 248 245 240 236 245 243 240 247 249 244 243 237 238 233 227 228 229 221
286 302 318 314 306 305 309 307 298 288 286 278 272 273 269 258 255 258 259 253 249 251 248 241 243 246 246 243 238 237 241 239 239 238 238 241 233 239 236 233 233 231 228
280 290 301 301 297 296 296 299 299 293 292 284 274 270 264 256 255 258 258 253 247 246 246 243 243 243 243 241 238 235 239 242 241 237 235 236 229 233 233 234 235 229 228
283 279 280 287 294 296 296 293 292 294 290 281 273 268 267 262 259 258 256 252 248 247 245 246 248 245 241 239 235 234 236 239 242 239 236 235 235 233 230 229 227 217 221
271 275 277 280 283 283 286 290 289 289 289 281 277 279 278 272 267 266 265 262 258 255 252 248 247 247 247 252 248 241 232 235 236 239 238 238 239 240 241 242 234 220 215
263 270 273 269 268 267 268 275 278 285 286 277 280 281 277 274 271 271 270 265 262 259 257 256 251 254 257 259 258 252 239 232 234 233 235 239 235 234 235 244 244 239 235
249 263 269 273 272 271 275 278 285 285 280 276 276 275 272 271 272 269 264 262 257 253 254 255 252 254 260 262 261 258 247 238 236 230 228 231 236 228 223 223 227 234 242
243 251 255 260 272 275 274 282 287 286 284 278 274 272 267 268 268 266 264 261 257 259 257 254 250 251 261 263 261 257 241 243 243 234 228 227 231 236 229 215 219 232 248
256 261 269 273 277 279 280 282 284 285 279 275 272 270 264 259 258 258 260 259 253 256 259 258 251 248 256 264 263 255 234 243 244 238 233 235 233 235 227 210 208 226 235
270 271 274 271 271 275 272 274 277 272 270 273 275 273 265 259 256 258 257 258 259 261 259 261 260 253 254 264 264 257 240 234 236 237 233 233 238 236 230 218 212 222 210
276 272 271 275 277 272 262 268 269 269 272 272 272 271 267 264 262 254 260 256 255 261 263 264 270 259 255 258 262 258 251 239 231 237 234 231 235 236 229 220 215 215 204
268 264 260 273 277 265 247 260 269 275 275 271 267 266 268 262 254 247 254 258 249 251 258 256 262 267 258 256 260 258 252 247 239 235 235 235 234 230 227 219 212 205 188
265 265 263 267 273 267 255 254 264 268 265 266 269 267 266 268 261 250 243 245 246 248 251 253 255 261 260 256 253 245 248 247 241 234 233 228 221 213 208 208 206 193 189
267 261 258 263 268 269 267 265 261 257 259 263 266 268 262 260 262 255 244 243 240 237 245 249 245 250 260 255 252 250 241 227 224 213 211 200 193 199 197 191 191 187 187
269 268 266 266 270 269 269 268 260 249 250 262 264 260 260 261 259 263 271 252 249 258 256 254 251 252 253 262 262 255 251 242 224 209 210 214 212 211 207 206 206 200 199